Louisville, KY

10:40 AM EST on December 07, 2016 (GMT -0500)
Louisville International-Standiford

Weather History for KSDF - November, 2011

Change the Weather History Date:

Friday, November 4, 2011

  Actual Average Record
Temperature  
Mean Temperature 53 °F 53 °F  
Max Temperature 60 °F 63 °F 80 °F (2003)
Min Temperature 45 °F 43 °F 20 °F (1991)
Degree Days  
Heating Degree Days 12 12  
Month to date heating degree days 46 46  
Since 1 July heating degree days 317 288  
Cooling Degree Days 0 0  
Month to date cooling degree days 0 0  
Year to date cooling degree days 1849 1609  
Growing Degree Days 3 (Base 50)    
Moisture  
Dew Point 43 °F    
Average Humidity 67    
Maximum Humidity 93    
Minimum Humidity 40    
Precipitation  
Precipitation 0.01 in 0.11 in 1.47 in (1936)
Month to date precipitation 0.66 0.45  
Year to date precipitation 55.85 37.94  
Snow  
Snow 0.00 in 0.00 in 7.40 in (1936)
Month to date snowfall 0.0 0.0  
Since 1 July snowfall 0.0 0.1  
Since 1 September snowfall 0.0 0.1  
Snow Depth 0.00 in    
Sea Level Pressure  
Sea Level Pressure 30.09 in    
Wind  
Wind Speed 8 mph (North)    
Max Wind Speed 18 mph    
Max Gust Speed 25 mph    
Visibility 7 miles    
Events Rain    
T = Trace of Precipitation, MM = Missing Value Source: NWS Daily Summary

Daily Weather History Graph

Daily Weather History Graph

Search for Another Location

Airport or City:

Trip Planner

Search our weather history database for the weather conditions in past years. The results will help you decide how hot, cold, wet, or windy it might be!

Date:

Astronomy

Nov. 04, 2011 Rise Set
Actual Time 8:11 AM EDT 6:40 PM EDT
Civil Twilight 7:44 AM EDT 7:08 PM EDT
Nautical Twilight 7:13 AM EDT 7:39 PM EDT
Astronomical Twilight 6:42 AM EDT 8:10 PM EDT
Moon 3:27 PM EDT (11/4) 2:28 AM EDT (11/4)
Length of Visible Light 11h 23m
Length of Day
10h 28m
Waxing Gibbous, 69% of the Moon is Illuminated
Nov 4
Waxing Gibbous
Nov 10
Full
Nov 18
Last Quarter
Nov 25
New
Dec 2
First Quarter

Hourly Weather History & Observations

Time (EDT) Temp. Windchill Dew Point Humidity Pressure Visibility Wind Dir Wind Speed Gust Speed Precip Events Conditions
12:05 AM 46.4 °F 44.3 °F 44.6 °F 93% 29.94 in 7.0 mi WSW 4.6 mph - 0.00 in Rain Light Rain
12:56 AM 46.9 °F - 44.1 °F 90% 29.94 in 4.0 mi SW 5.8 mph - 0.07 in Rain Light Rain
1:56 AM 46.0 °F 42.5 °F 45.0 °F 96% 29.96 in 5.0 mi West 6.9 mph - 0.01 in   Overcast
2:08 AM 46.4 °F 43.5 °F 44.6 °F 93% 29.95 in 5.0 mi West 5.8 mph - 0.00 in   Light Drizzle
2:56 AM 46.0 °F 44.8 °F 45.0 °F 96% 29.96 in 2.5 mi WNW 3.5 mph - 0.00 in   Light Drizzle
3:56 AM 48.0 °F - 46.0 °F 93% 29.96 in 2.5 mi WNW 5.8 mph - 0.00 in   Light Drizzle
4:38 AM 50.0 °F - 48.2 °F 94% 29.98 in 3.0 mi North 9.2 mph - 0.00 in   Light Drizzle
4:49 AM 50.0 °F - 48.2 °F 94% 29.98 in 5.0 mi North 8.1 mph - 0.00 in   Overcast
4:56 AM 50.0 °F - 48.0 °F 93% 29.99 in 5.0 mi North 8.1 mph - 0.00 in   Overcast
5:31 AM 51.8 °F - 48.2 °F 88% 30.00 in 5.0 mi North 9.2 mph - N/A   Overcast
5:56 AM 51.1 °F - 48.0 °F 89% 30.01 in 5.0 mi North 10.4 mph - N/A   Overcast
6:11 AM 51.8 °F - 48.2 °F 88% 30.03 in 7.0 mi NNE 12.7 mph - N/A   Overcast
6:37 AM 51.8 °F - 46.4 °F 82% 30.05 in 9.0 mi NE 12.7 mph - N/A   Overcast
6:56 AM 51.1 °F - 46.0 °F 83% 30.05 in 8.0 mi NNE 8.1 mph - N/A   Overcast
7:03 AM 51.8 °F - 46.4 °F 82% 30.05 in 8.0 mi North 8.1 mph - N/A   Overcast
7:37 AM 50.0 °F - 46.4 °F 87% 30.06 in 7.0 mi North 8.1 mph - N/A   Overcast
7:56 AM 50.0 °F - 46.0 °F 86% 30.08 in 7.0 mi North 10.4 mph - N/A   Overcast
8:56 AM 50.0 °F - 46.0 °F 86% 30.13 in 5.0 mi North 10.4 mph - N/A   Overcast
9:56 AM 50.0 °F - 44.1 °F 80% 30.14 in 7.0 mi NE 15.0 mph - N/A   Overcast
10:56 AM 50.0 °F - 44.1 °F 80% 30.17 in 7.0 mi NNE 9.2 mph - N/A   Overcast
11:56 AM 48.9 °F - 43.0 °F 80% 30.19 in 8.0 mi North 13.8 mph - N/A   Overcast
12:56 PM 48.9 °F - 43.0 °F 80% 30.19 in 8.0 mi North 9.2 mph - N/A   Overcast
1:56 PM 50.0 °F - 42.1 °F 74% 30.18 in 8.0 mi NNE 5.8 mph - N/A   Overcast
2:56 PM 53.1 °F - 43.0 °F 69% 30.18 in 9.0 mi North 5.8 mph - N/A   Scattered Clouds
3:56 PM 57.9 °F - 43.0 °F 58% 30.16 in 10.0 mi North 6.9 mph - N/A   Scattered Clouds
4:56 PM 60.1 °F - 42.1 °F 51% 30.17 in 10.0 mi North 8.1 mph - N/A   Scattered Clouds
5:56 PM 59.0 °F - 36.0 °F 42% 30.18 in 10.0 mi NNE 10.4 mph - N/A   Scattered Clouds
6:56 PM 55.0 °F - 35.1 °F 47% 30.19 in 10.0 mi NNE 4.6 mph - N/A   Mostly Cloudy
7:56 PM 52.0 °F - 36.0 °F 54% 30.21 in 10.0 mi NNE 5.8 mph - N/A   Scattered Clouds
8:56 PM 51.1 °F - 35.1 °F 54% 30.22 in 10.0 mi NNE 5.8 mph - N/A   Partly Cloudy
9:56 PM 48.9 °F - 36.0 °F 61% 30.23 in 10.0 mi NE 5.8 mph - N/A   Partly Cloudy
10:56 PM 46.9 °F - 35.1 °F 63% 30.24 in 10.0 mi NE 5.8 mph - N/A   Partly Cloudy
11:56 PM 45.0 °F 41.8 °F 35.1 °F 68% 30.25 in 10.0 mi NE 5.8 mph - N/A   Partly Cloudy